Find Kosmos-567

NORAD ID: 6678 Int'l Des: 1973-037 Owner: GUKOSR Country: SU operational
LEOCIRCULAR

リアルタイム位置

3D地球を読み込み中...

Kosmos-567について

説明を読み込み中...

次回通過

Passes for default location (London). Set your location on the main map for personalized predictions.

高度履歴

Loading altitude history...

軌道要素

1 6678U 73037D 26105.69691068 -.00000017 00000-0 -98760-5 0 9991
2 6678 74.0195 202.0526 0044677 73.7659 37.0543 12.54106275419499
Epoch: Apr 15, 2026 • Age: 11 hours

現在のステータス

高度 1422.4 km
速度 7.17 km/s
衛星直下点 57.53°N, 35.52°W
タイプ other

Most Searched